Simultaneous Nadir Overpasses (SNOs) Predictions

Prediction of SNOs between METOP-A and TERRA Satellite Orbit:

Table of predicted SNOs for the next 14.0 days since TLE Epoch: 8/4/2017
Index Date (METOP-A) Time (METOP-A) Lat,Lon (METOP-A) SZA (METOP-A ) Date (TERRA) Time (TERRA) Lat,Lon (TERRA) SZA (TERRA ) Distance(km) Time Diff (sec)
1 08/06/2017 15:01:39 81.35, 2.50 67.60 08/06/2017 15:01:45 81.35, 2.64 67.62 2.36 6
2 08/06/2017 15:52:19 -81.35, 170.27 112.34 08/06/2017 15:51:12 -81.35, 170.26 112.38 0.87 67
3 08/09/2017 10:35:58 81.35, 69.09 68.43 08/09/2017 10:36:00 81.36, 69.24 68.45 2.52 2
4 08/09/2017 11:26:38 -81.35,-123.10 111.51 08/09/2017 11:25:27 -81.35,-123.13 111.55 0.46 71
5 08/12/2017 05:19:39 -81.35, -32.15 110.79 08/12/2017 05:20:51 -81.34, -32.22 110.77 1.20 72
6 08/12/2017 06:10:19 81.35, 135.27 69.24 08/12/2017 06:10:17 81.34, 135.45 69.25 3.10 2
7 08/12/2017 07:00:36 -81.33, -47.81 109.61 08/12/2017 06:59:22 -81.69, -48.13 109.50 39.89 74
8 08/15/2017 00:53:59 -81.35, 34.44 109.90 08/15/2017 00:55:07 -81.35, 34.40 109.87 0.74 68
9 08/15/2017 01:44:38 81.35,-157.77 70.17 08/15/2017 01:44:33 81.35,-157.94 70.15 2.84 5
10 08/17/2017 20:28:19 -81.35, 100.62 109.02 08/17/2017 20:29:23 -81.34, 100.63 108.99 0.59 64




NCC Satellite Simultaneous Nadir Overpasses (SNOs) Prediction Service
